Regional Weather Roundup
Issued by NWS San Diego, CA

Home | Current Version | Previous Version | Text Only | Print | Product List | Glossary On
Versions: 1 2 3 4 5 6 7 8 9 10 11 12 13 14 15 16 17 18 19 20 21 22 23 24 25 26 27 28 29 30 31 32 33 34 35 36 37 38 39 40 41 42 43 44 45 46 47 48 49 50
000
ASUS46 KSGX 270811
RWRSGX
SAN DIEGO HOURLY WEATHER ROUNDUP
NATIONAL WEATHER SERVICE SAN DIEGO CA
100 AM PDT TUE JUN 27 2017

NOTE: "FAIR" INDICATES FEW OR NO CLOUDS BELOW 12,000 FEET WITH NO
SIGNIFICANT WEATHER AND/OR OBSTRUCTIONS TO VISIBILITY.

CAZ042-043-060-061-PZZ750-775-270900-

GREATER SAN DIEGO AREA

CITY           SKY/WX    TMP DP  RH WIND       PRES   REMARKS
SAN DIEGO AP   CLEAR     69  65  86 CALM      29.90F
NATIONAL CITY    N/A     69  65  85 CALM      29.89F
CHULA VISTA      N/A     66  64  92 CALM      29.82S
IMPERIAL BEACH CLEAR     62  59  90 SW5       29.90S
BROWN FIELD    CLEAR     70  62  76 CALM      29.90S
MIRAMAR MCAS   CLEAR     64  51  62 CALM      29.89F
MONTGOMERY FLD CLEAR     74  54  49 NW3       29.89F
GILLESPIE FLD  FAIR      70  48  46 CALM      29.90S

$$

NORTH SAN DIEGO COUNTY

CITY           SKY/WX    TMP DP  RH WIND       PRES   REMARKS
CAMP PENDLETON CLEAR     57  57 100 CALM      29.88F
OCEANSIDE AP   CLEAR     61  59  93 CALM      29.88F
OCEANSIDE HBR    N/A     63  60  91 CALM      29.91F
VISTA            N/A     63  58  83 CALM      29.86F
CARLSBAD       CLEAR     68  64  87 CALM      29.88F
DEL MAR          N/A     65  62  90 CALM      29.90F
LA JOLLA SCRIP   N/A     66  64  92 CALM      29.88F
FALLBROOK        N/A     69  60  75 CALM      29.90S
ESCONDIDO        N/A     73  51  45 CALM      29.88F
SAN MARCOS       N/A     71  55  57 CALM      29.89F
POWAY            N/A     67  50  55 CALM      29.89F

$$

EAST SAN DIEGO COUNTY

CITY           SKY/WX    TMP DP  RH WIND       PRES   REMARKS
RAMONA         CLEAR     61  42  49 CALM      29.94F
SANTEE LAKES     N/A     68  49  50 CALM      29.87F
LA MESA          N/A     74  55  50 CALM      29.81F
JAMUL            N/A     67  55  64 CALM      29.87F
DESCANSO N       N/A     70  28  21 NW3       29.79F
CAMPO            N/A     65  27  23 NE3       29.98F

$$

ORANGE COUNTY AND THE LOS ANGELES BASIN

CITY           SKY/WX    TMP DP  RH WIND       PRES   REMARKS
JOHN WAYNE AP  CLEAR     67  63  87 SW8       29.88F
LAKE FOREST FR   N/A     72  36  27 CALM      29.74F
HUNTINGTON BCH   N/A     63  62  95 CALM      29.89F
LOS ALAMITOS   FAIR      61  58  91 S3        29.88F
FULLERTON      CLEAR     70  61  73 S3        29.87F
LONG BEACH     CLEAR     68  58  70 SE3       29.88S
L.A. AP        CLEAR     68  58  70 SE6       29.87F
L.A. DOWNTOWN  CLEAR     70  56  61 CALM      29.87F

$$

THE INLAND EMPIRE

CITY           SKY/WX    TMP DP  RH WIND       PRES   REMARKS
CORONA         CLEAR     64  48  56 CALM      29.90S
CHINO          CLEAR     69  54  58 CALM      29.90F
ONTARIO        CLEAR     75  50  41 CALM      29.90F
SAN BERNARDINO FAIR      76  41  29 CALM      29.92F
RIVERSIDE AP   CLEAR     75  49  39 CALM      29.90F
MORENO VALLEY    N/A     78  40  26 CALM      28.05S
MARCH ARB      CLEAR     64  34  32 CALM      29.93F
HORSETHIEF CYN   N/A     75  30  19 SW1       29.87F
PERRIS           N/A     79  38  23 CALM      29.93F
HEMET EAST       N/A     75  31  19 CALM      29.93S
FRENCH VALLEY  FAIR      72  39  30 CALM      29.93F
TEMECULA         N/A     74  51  43 CALM      29.96S

$$

SAN BERNARDINO AND RIVERSIDE COUNTY MOUNTAINS

CITY           SKY/WX    TMP DP  RH WIND       PRES   REMARKS
BIG BEAR AP    CLEAR     61  21  21 SW7       30.24F
ANGELUS OAKS     N/A     62  26  26 CALM      29.75F
PINE COVE        N/A     65  23  20 N5        29.84F

$$

SOUTHERN DESERT INCLUDING THE COACHELLA VALLEY

CITY           SKY/WX    TMP DP  RH WIND       PRES   REMARKS
PALM SPRINGS   CLEAR     91  28  10 CALM      29.76S
THOUSAND PALMS   N/A     95  25   8 NW23      29.71F
PALM DESERT      N/A     89  37  16 CALM        N/A
THERMAL        CLEAR     94  24   8 N12       29.71F
BLYTHE         CLEAR     95  31  10 W13       29.75S
IMPERIAL AP    CLEAR     89  34  14 W10       29.74F
EL CENTRO NAS  CLEAR     85  24  11 NW9       29.76F
YUMA AZ        CLEAR     90  31  12 W7        29.76F
MEXICALI       CLEAR     93  23   8 W5        29.77F

$$

UPPER DESERT

CITY           SKY/WX    TMP DP  RH WIND       PRES   REMARKS
VICTORVILLE AP CLEAR     72  27  18 CALM      29.99F
HESPERIA         N/A     73  34  24 W3        29.92F
PALMDALE       CLEAR     77  39  25 SW6       29.98F
LANCASTER      CLEAR     77  40  26 SW7       29.97F
EDWARDS AFB    CLEAR     76  38  24 SW10      29.93F
DAGGETT        CLEAR     85  35  16 SW24      29.87F
29 PALMS N     CLEAR     82  18   9 NW8       29.95F
NEEDLES        CLEAR     99  23   6 W22       29.73F

$$

REGIONAL REPORTS

CITY           SKY/WX    TMP DP  RH WIND       PRES   REMARKS
SANTA BARBARA  CLEAR     60  57  89 CALM      29.87S
SANDBERG       CLEAR     73  37  27 NW18      30.12F
LAS VEGAS NV   CLEAR     91  13   5 SW21G30   29.77F
PHOENIX AZ     CLEAR     96  38  13 SW5       29.76F
TIJUANA        CLEAR     68  59  73 CALM      29.92S
ENSENADA NW      N/A     67  32  27 CALM      29.85F

$$

OFFSHORE ISLANDS

CITY           SKY/WX    TMP DP  RH WIND       PRES   REMARKS
CATALINA ARPT  CLEAR     78  29  16 NW9       29.96F
SAN NICOLAS IS CLEAR     60 N/A N/A W26G35    29.91F

$$

MARINE AND OFFSHORE BUOY REPORTS

STATION/POSITION SKY/WX   TEMP    WIND        PRES    VSBY  SWELL
                          AIR SEA DIR/SP/G                  HT/PER/DIR
                          (F)     (DEG/KT/KT) (MB)    (MI)  (FT/S/D)
TANNER BANKS               63 63  320/ 21/ 27 1012.6          3/300/14
S CLEMENTE BASIN              65  340/  8/ 10 1012.3F         3/200/15
SAN NICOLAS IS.               59                N/A           2/210/14
SO. S. ROSA ISLA           60 58  310/ 23/ 27 1012.7F         2/210/15
W. S. BARBARA CH           58 55  310/ 19/ 25 1013.0F         2/240/15
M. S. BARBARA CH           62 60  270/ 12/ 14 1011.9F         5/250/ 6
S. MONICA BASIN            65 67  310/ 12/ 14 1011.0F         3/270/ 6
S PEDRO CHANNEL               65                N/A           2/160/13
CMP PENDLETON NS              66                N/A           2/220/15
OCEANSIDE OFFSHR              65                N/A           2/200/15
TORREY PINES OTR              66                N/A           2/220/14
SAN DIEGO BAY                 68              1012.5F
POINT LOMA SOUTH              64                N/A           3/210/14

$$





USA.gov is the U.S. government's official web portal to all federal, state and local government web resources and services.